FW2795 Weather Reports


Display with metric or nautical units.
time (UTC)temp
F
wind
direction
speed
MPH
gust
MPH
rain 1hr
in
rain 24hr
in
rain mn
in
humidity
%
barometer
mb
20260505152750 62 56 1.0 3.0 0.00 0.00 0.00 55 1012.4
20260505152250 63 18 2.0 3.0 0.00 0.00 0.00 55 1012.5
20260505151804 62 352 1.0 4.0 0.00 0.00 0.00 57 1012.4
20260505150754 62 17 1.0 2.0 0.00 0.00 0.00 56 1012.5
20260505140300 61 4 1.0 2.0 0.00 0.00 0.00 60 1012.7
20260505124806 64 50 2.0 4.0 0.00 0.00 0.00 53 1013.0
20260505124250 64 278 1.0 2.0 0.00 0.00 0.00 52 1013.0
20260505123750 65 271 2.0 3.0 0.00 0.00 0.00 52 1012.8
20260505122804 65 332 2.0 4.0 0.00 0.00 0.00 52 1013.0
20260505122249 66 309 4.0 7.0 0.00 0.00 0.00 53 1013.0
20260505121749 65 308 3.0 4.0 0.00 0.00 0.00 53 1013.0
20260505120803 64 357 4.0 5.0 0.00 0.00 0.00 52 1013.0
20260505120303 63 355 1.0 2.0 0.00 0.00 0.00 54 1013.1
20260505115803 63 22 2.0 4.0 0.00 0.00 0.00 55 1013.1
20260505114802 61 68 1.0 2.0 0.00 0.00 0.00 59 1013.1
20260505114251 61 71 2.0 4.0 0.00 0.00 0.00 59 1013.2
20260505113751 61 87 1.0 2.0 0.00 0.00 0.00 60 1013.0
20260505112751 61 74 3.0 7.0 0.00 0.00 0.00 56 1013.3
20260505112251 63 62 5.0 8.0 0.00 0.00 0.00 55 1013.3
20260505111805 63 108 0.0 2.0 0.00 0.00 0.00 56 1013.2
20260505110755 64 6 1.0 2.0 0.00 0.00 0.00 58 1013.3
20260505110254 63 33 1.0 2.0 0.00 0.00 0.00 59 1013.3
20260505101756 61 80 1.0 2.0 0.00 0.00 0.00 62 1013.8
20260505101256 61 68 0.0 1.0 0.00 0.00 0.00 63 1013.8
20260505100810 61 67 2.0 4.0 0.00 0.00 0.00 62 1013.6
20260505100310 61 92 2.0 4.0 0.00 0.00 0.00 67 1013.6
20260505095810 60 53 2.0 2.0 0.00 0.00 0.00 71 1013.5
20260505095309 58 358 2.0 2.0 0.00 0.00 0.00 72 1013.6
20260505094809 58 340 1.0 3.0 0.00 0.00 0.00 72 1013.8
20260505094308 58 317 1.0 3.0 0.00 0.00 0.00 72 1013.8
20260505093808 58 3 0.0 2.0 0.00 0.00 0.00 72 1013.8
20260505093258 58 27 0.0 2.0 0.00 0.00 0.00 71 1013.8
20260505092757 59 39 2.0 3.0 0.00 0.00 0.00 69 1013.8
20260505092312 59 91 1.0 3.0 0.00 0.00 0.00 69 1013.7
20260505091756 59 92 1.0 2.0 0.00 0.00 0.00 69 1013.7
20260505091256 59 100 2.0 4.0 0.00 0.00 0.00 68 1013.9
20260505090756 59 144 3.0 6.0 0.00 0.00 0.00 66 1013.8
20260505090310 60 194 2.0 4.0 0.00 0.00 0.00 67 1013.9
20260505085810 60 355 1.0 2.0 0.00 0.00 0.00 69 1013.8
20260505085309 59 342 2.0 3.0 0.00 0.00 0.00 68 1013.9
20260505084809 60 314 1.0 2.0 0.00 0.00 0.00 68 1013.9
20260505084308 60 311 2.0 3.0 0.00 0.00 0.00 70 1014.0
20260505083808 59 349 2.0 3.0 0.00 0.00 0.00 72 1014.0
20260505083308 58 68 0.0 2.0 0.00 0.00 0.00 71 1013.9
20260505082757 58 62 2.0 2.0 0.00 0.00 0.00 70 1014.0
20260505082311 59 105 1.0 2.0 0.00 0.00 0.00 67 1013.9
20260505081756 61 99 2.0 3.0 0.00 0.00 0.00 66 1014.1
20260505081256 61 81 1.0 3.0 0.00 0.00 0.00 70 1014.0
20260505080810 60 79 4.0 5.0 0.00 0.00 0.00 72 1014.0
20260505080315 59 22 1.0 2.0 0.00 0.00 0.00 76 1014.1
20260505075800 57 25 1.0 3.0 0.00 0.00 0.00 78 1013.9
20260505075259 56 352 1.0 2.0 0.00 0.00 0.00 78 1014.1
20260505074759 56 342 0.0 1.0 0.00 0.00 0.00 81 1014.2
20260505074314 56 342 0.0 2.0 0.00 0.00 0.00 82 1014.1
20260505073818 56 347 2.0 4.0 0.00 0.00 0.00 83 1014.3
20260505073308 55 322 2.0 5.0 0.00 0.00 0.00 84 1014.1
20260505072757 54 325 2.0 4.0 0.00 0.00 0.00 85 1014.1
20260505072312 54 333 2.0 4.0 0.00 0.00 0.00 85 1014.2
20260505071756 54 3 0.0 1.0 0.00 0.00 0.00 85 1014.1
20260505071255 53 12 2.0 3.0 0.00 0.00 0.00 87 1014.0
20260505070755 53 338 0.0 2.0 0.00 0.00 0.00 88 1014.2
20260505070309 53 338 2.0 2.0 0.00 0.00 0.00 89 1014.1
20260505065809 53 359 1.0 2.0 0.00 0.00 0.00 89 1014.0
20260505065309 53 10 2.0 3.0 0.00 0.00 0.00 89 1014.2
20260505064808 53 359 2.0 3.0 0.00 0.00 0.00 90 1014.2
20260505064308 53 241 2.0 3.0 0.00 0.00 0.00 90 1014.2
20260505063808 53 285 0.0 1.0 0.00 0.00 0.00 90 1014.1
20260505063307 52 291 0.0 0.0 0.00 0.00 0.00 91 1014.1
20260505062807 52 293 1.0 2.0 0.00 0.00 0.00 91 1014.2
20260505062306 52 287 2.0 2.0 0.00 0.00 0.00 91 1014.1
20260505061806 52 317 1.0 2.0 0.00 0.00 0.00 92 1014.1
20260505061306 51 328 2.0 4.0 0.00 0.00 0.00 92 1014.0
20260505060806 51 337 1.0 2.0 0.00 0.00 0.00 92 1014.2
20260505060305 51 328 1.0 2.0 0.00 0.00 0.00 92 1014.1
20260505055805 51 334 1.0 2.0 0.00 0.00 0.00 92 1014.1
20260505055304 51 351 2.0 3.0 0.00 0.00 0.00 92 1014.2
20260505054804 51 315 0.0 2.0 0.00 0.00 0.00 92 1013.9
20260505054304 51 315 1.0 2.0 0.00 0.00 0.00 92 1014.1
20260505053804 51 180 0.0 1.0 0.00 0.00 0.00 92 1014.1
20260505053318 51 180 0.0 0.0 0.00 0.00 0.00 92 1013.9
20260505052808 51 180 0.0 1.0 0.00 0.00 0.00 92 1014.1
20260505052308 51 180 0.0 0.0 0.00 0.00 0.00 92 1014.0
20260505051807 51 180 0.0 0.0 0.00 0.00 0.00 92 1013.9
20260505051307 51 180 0.0 1.0 0.00 0.00 0.00 92 1013.9
20260505050807 51 90 0.0 1.0 0.00 0.00 0.00 92 1014.1
20260505050306 51 90 0.0 1.0 0.00 0.00 0.00 92 1014.3
20260505041307 51 180 0.0 1.0 0.00 0.00 0.00 92 1014.1
20260505040807 51 180 0.0 0.0 0.00 0.00 0.00 92 1014.3
20260505040307 51 180 0.0 0.0 0.00 0.00 0.00 92 1014.1
20260505035805 51 180 0.0 0.0 0.00 0.00 0.00 92 1014.3
20260505035450 51 180 0.0 0.0 0.00 0.00 0.00 92 1014.1
20260505034805 50 180 0.0 1.0 0.00 0.00 0.00 92 1014.2
20260505034304 50 180 0.0 1.0 0.00 0.00 0.00 92 1014.3
20260505033819 50 315 0.0 0.0 0.00 0.00 0.00 92 1014.3
20260505033308 50 315 0.0 1.0 0.00 0.00 0.00 92 1014.2
20260505032808 51 315 0.0 1.0 0.00 0.00 0.00 92 1014.3
20260505032308 51 315 0.0 1.0 0.00 0.00 0.00 92 1014.3
20260505031807 51 315 0.0 2.0 0.00 0.00 0.00 92 1014.3
20260505031307 51 315 1.0 2.0 0.00 0.00 0.00 92 1014.2
20260505030757 50 180 0.0 1.0 0.00 0.00 0.00 92 1014.3
20260505030311 50 225 0.0 0.0 0.00 0.00 0.00 91 1014.2
20260505025755 50 225 0.0 1.0 0.00 0.00 0.00 91 1014.3
20260505025255 50 225 0.0 0.0 0.00 0.00 0.00 91 1014.2
20260505024810 50 225 0.0 0.0 0.00 0.00 0.00 91 1014.2
20260505024314 50 225 0.0 0.0 0.00 0.00 0.00 91 1014.3
20260505023804 50 225 2.0 2.0 0.00 0.00 0.00 90 1014.4
20260505023303 50 225 0.0 1.0 0.00 0.00 0.00 91 1014.4
20260505022803 50 225 0.0 1.0 0.00 0.00 0.00 90 1014.2
20260505022304 50 225 0.0 0.0 0.00 0.00 0.00 90 1014.2
20260505021802 50 225 0.0 0.0 0.00 0.00 0.00 90 1014.1
20260505021317 51 238 0.0 0.0 0.00 0.00 0.00 89 1014.2
20260505020806 51 238 1.0 2.0 0.00 0.00 0.00 89 1014.3
20260505020306 51 270 0.0 1.0 0.00 0.00 0.00 89 1014.3
20260505015806 51 270 0.0 0.0 0.00 0.00 0.00 89 1014.3
20260505015305 51 270 0.0 1.0 0.00 0.00 0.00 89 1014.3
20260505014755 52 287 1.0 2.0 0.00 0.00 0.00 89 1014.2
20260505014310 52 45 0.0 1.0 0.00 0.00 0.00 88 1014.3
20260505013809 52 45 0.0 1.0 0.00 0.00 0.00 88 1014.5
20260505013309 52 18 0.0 1.0 0.00 0.00 0.00 87 1014.6
20260505012809 52 18 0.0 1.0 0.00 0.00 0.00 87 1014.7
20260505012308 52 18 1.0 2.0 0.00 0.00 0.00 86 1014.7
20260505011808 53 315 0.0 0.0 0.00 0.00 0.00 86 1014.5
20260505011308 53 315 0.0 1.0 0.00 0.00 0.00 86 1014.8
20260505010807 53 315 1.0 2.0 0.00 0.00 0.00 86 1014.7
20260505010307 53 180 0.0 2.0 0.00 0.00 0.00 86 1014.9
20260505005806 53 180 0.0 0.0 0.00 0.00 0.00 85 1014.9
20260505005306 53 180 0.0 2.0 0.00 0.00 0.00 85 1014.8
20260505004755 54 180 0.0 1.0 0.00 0.00 0.00 84 1014.9
20260505004325 54 45 0.0 1.0 0.00 0.00 0.00 84 1015.1
20260505003759 54 45 0.0 2.0 0.00 0.00 0.00 84 1015.1
20260505003258 54 45 0.0 0.0 0.00 0.00 0.00 84 1015.1
20260505002758 54 45 0.0 0.0 0.00 0.00 0.00 83 1015.0
20260505002313 54 45 0.0 0.0 0.00 0.00 0.00 83 1015.0
20260505001758 54 45 1.0 2.0 0.00 0.00 0.00 83 1015.2
20260505001257 54 45 1.0 2.0 0.00 0.00 0.00 83 1015.0
20260505000757 54 180 0.0 0.0 0.00 0.00 0.00 83 1015.2
20260505000311 54 180 0.0 2.0 0.00 0.00 0.00 83 1015.2
20260504235756 55 180 0.0 1.0 0.00 0.00 0.00 83 1015.2
20260504235255 55 135 0.0 2.0 0.00 0.00 0.00 83 1015.1
20260504234754 55 135 0.0 1.0 0.00 0.00 0.00 83 1015.4
20260504234309 55 135 0.0 1.0 0.00 0.00 0.00 83 1015.3
20260504233753 55 135 0.0 0.0 0.00 0.00 0.00 82 1015.2
20260504233252 55 135 0.0 2.0 0.00 0.00 0.00 82 1015.1
20260504232807 55 128 2.0 2.0 0.00 0.00 0.00 82 1015.4
20260504232312 55 103 0.0 2.0 0.00 0.00 0.00 82 1015.3
20260504231801 55 98 0.0 2.0 0.00 0.00 0.00 82 1015.4
20260504231301 55 98 2.0 4.0 0.00 0.00 0.00 82 1015.3
20260504230800 55 57 0.0 1.0 0.00 0.00 0.00 82 1015.2
20260504230315 55 58 2.0 5.0 0.00 0.00 0.00 82 1015.2
20260504225759 55 42 2.0 4.0 0.00 0.00 0.00 82 1015.2
20260504225314 55 38 1.0 2.0 0.00 0.00 0.00 82 1015.2
20260504224804 55 52 0.0 2.0 0.00 0.00 0.00 82 1015.2
20260504224304 55 49 2.0 4.0 0.00 0.00 0.00 82 1015.3
20260504223803 55 53 1.0 2.0 0.00 0.00 0.00 82 1015.2
20260504223303 55 18 1.0 2.0 0.00 0.00 0.00 82 1015.2
20260504222818 56 12 0.0 2.0 0.00 0.00 0.00 82 1015.4
20260504222307 56 15 2.0 4.0 0.00 0.00 0.00 82 1015.3
20260504221806 56 341 1.0 2.0 0.00 0.00 0.00 81 1015.4
20260504221306 56 347 0.0 1.0 0.00 0.00 0.00 81 1015.4
20260504220820 56 8 2.0 4.0 0.00 0.00 0.00 81 1015.3
20260504220310 56 81 1.0 2.0 0.00 0.00 0.00 81 1015.6
20260504215809 56 60 1.0 2.0 0.00 0.00 0.00 81 1015.4
20260504215309 56 64 0.0 1.0 0.00 0.00 0.00 81 1015.5
20260504214808 56 61 2.0 3.0 0.00 0.00 0.00 81 1015.6
20260504214323 56 68 2.0 4.0 0.00 0.00 0.00 81 1015.5
20260504213813 56 49 2.0 4.0 0.00 0.00 0.00 81 1015.5
20260504213302 56 23 2.0 3.0 0.00 0.00 0.00 81 1015.6
20260504212817 56 60 0.0 1.0 0.00 0.00 0.00 81 1015.7
20260504212307 56 59 2.0 4.0 0.00 0.00 0.00 81 1015.6
20260504211806 56 77 0.0 2.0 0.00 0.00 0.00 81 1015.6
20260504211320 56 58 0.0 1.0 0.00 0.00 0.00 81 1015.5
20260504210810 56 58 1.0 2.0 0.00 0.00 0.00 81 1015.6
20260504210314 56 60 3.0 4.0 0.00 0.00 0.00 81 1015.6
20260504205804 56 3 1.0 2.0 0.00 0.00 0.00 81 1015.6
20260504205304 56 352 0.0 1.0 0.00 0.00 0.00 81 1015.6
20260504204803 56 352 3.0 4.0 0.00 0.00 0.00 81 1015.5
20260504204317 56 263 0.0 2.0 0.00 0.00 0.00 81 1015.7
20260504203802 56 269 1.0 2.0 0.00 0.00 0.00 81 1015.5
20260504203301 56 264 2.0 2.0 0.00 0.00 0.00 81 1015.7
20260504202801 57 273 0.0 1.0 0.00 0.00 0.00 81 1015.6
20260504202316 57 273 0.0 2.0 0.00 0.00 0.00 81 1015.6
20260504201800 57 284 2.0 4.0 0.00 0.00 0.00 81 1015.5
20260504201300 57 357 1.0 2.0 0.00 0.00 0.00 80 1015.4
20260504200815 57 344 2.0 2.0 0.00 0.00 0.00 80 1015.4
20260504200304 57 7 2.0 4.0 0.00 0.00 0.00 79 1015.4
20260504195803 57 352 0.0 1.0 0.00 0.00 0.00 79 1015.3
20260504195304 58 353 2.0 3.0 0.00 0.00 0.00 79 1015.4
20260504194817 58 10 2.0 2.0 0.00 0.00 0.00 78 1015.3
20260504194307 58 23 1.0 2.0 0.00 0.00 0.00 78 1015.1
20260504193806 58 34 1.0 2.0 0.00 0.00 0.00 77 1015.0
20260504193306 58 37 2.0 3.0 0.00 0.00 0.00 76 1014.9
20260504192806 58 40 2.0 2.0 0.00 0.00 0.00 75 1014.9
20260504192305 59 52 2.0 3.0 0.00 0.00 0.00 75 1014.8
20260504191805 59 73 2.0 4.0 0.00 0.00 0.00 73 1014.9
20260504191304 59 62 0.0 1.0 0.00 0.00 0.00 73 1014.8
20260504190804 60 62 2.0 3.0 0.00 0.00 0.00 72 1014.7
20260504190304 60 49 2.0 3.0 0.00 0.00 0.00 72 1014.7
20260504185818 61 22 2.0 4.0 0.00 0.00 0.00 70 1014.6
20260504185308 61 45 2.0 3.0 0.00 0.00 0.00 70 1014.7
20260504184808 61 45 1.0 2.0 0.00 0.00 0.00 69 1014.5
20260504184307 62 45 0.0 2.0 0.00 0.00 0.00 69 1014.5
20260504183806 63 45 1.0 2.0 0.00 0.00 0.00 68 1014.6
20260504183305 63 57 1.0 2.0 0.00 0.00 0.00 68 1014.3
20260504182805 63 59 0.0 2.0 0.00 0.00 0.00 69 1014.5
20260504182304 62 58 0.0 1.0 0.00 0.00 0.00 70 1014.3
20260504181804 62 45 0.0 1.0 0.00 0.00 0.00 70 1014.3
20260504181319 62 45 2.0 3.0 0.00 0.00 0.00 70 1014.3
20260504180809 61 50 2.0 4.0 0.00 0.00 0.00 71 1014.4
20260504180323 61 47 2.0 4.0 0.00 0.00 0.00 72 1014.3
20260504175803 60 53 1.0 4.0 0.00 0.00 0.00 72 1014.5
20260504175304 60 62 3.0 5.0 0.00 0.00 0.00 71 1014.3
20260504174802 61 89 3.0 5.0 0.00 0.00 0.00 68 1014.4
20260504174317 62 107 2.0 4.0 0.00 0.00 0.00 68 1014.4
20260504173801 63 110 4.0 5.0 0.00 0.00 0.00 66 1014.5
20260504173301 64 132 2.0 6.0 0.00 0.00 0.00 65 1014.5
20260504172801 64 98 3.0 5.0 0.00 0.00 0.00 66 1014.6
20260504172315 64 52 2.0 4.0 0.00 0.00 0.00 68 1014.6
20260504171805 63 27 1.0 3.0 0.00 0.00 0.00 68 1014.9
20260504171304 62 44 2.0 4.0 0.00 0.00 0.00 71 1014.9
20260504170804 61 59 2.0 4.0 0.00 0.00 0.00 72 1015.0
20260504170304 60 32 2.0 4.0 0.00 0.00 0.00 73 1014.8
20260504160314 60 92 2.0 4.0 0.00 0.00 0.00 73 1014.8